Wind_Speed
69 69 69 69 69 69 70 70 71 71 71 70 70 69 69 70 71 73 75 79 84 91 94 94 93 91 90 88 86 85 84 83 81 81 81 80 78 78 77 76 75 74 74 73 74 73 73 72 71 70 70 70 69 69 67 66 65 65 67 69 70 70 69 68 67 66 64 63 63 62 62 63 64 66 68 68 66 63 61 59 57 56 57 58 58 56 55 54
71 71 71 71 71 71 71 72 72 73 73 73 72 71 71 70 70 72 73 75 78 83 89 94 95 94 92 90 88 87 86 84 82 82 83 80 79 79 77 76 75 74 73 73 73 73 72 72 71 71 71 70 69 69 68 67 66 66 69 70 70 69 69 68 67 66 65 65 64 64 65 66 66 66 69 69 65 64 64 61 59 58 58 59 58 57 56 54
73 74 74 73 73 73 73 73 73 74 74 75 75 74 73 72 71 71 72 73 75 77 81 88 94 96 94 92 90 89 88 86 84 85 84 80 80 80 78 77 76 75 74 73 72 72 72 71 71 71 71 70 69 69 68 67 67 68 70 70 69 69 68 67 67 67 66 66 66 67 67 67 66 67 70 68 65 65 65 63 61 60 60 59 59 58 56 55
74 75 75 75 74 74 74 75 75 75 75 76 76 76 76 75 73 72 71 72 73 75 77 81 87 93 96 95 93 92 90 88 87 88 85 82 82 81 79 78 77 75 74 73 72 72 71 71 71 70 70 69 69 68 67 67 67 68 70 70 68 68 68 67 68 68 68 68 68 68 68 67 67 68 69 68 67 67 67 65 63 62 61 61 61 60 57 56
74 74 75 75 75 74 74 75 76 76 75 76 76 77 77 77 76 74 73 72 72 73 75 77 80 85 91 95 96 95 92 90 89 89 87 84 84 82 80 79 78 77 75 74 73 72 71 70 70 69 69 68 68 68 67 68 68 69 70 69 68 68 68 68 68 69 69 69 69 69 68 68 67 68 69 69 69 69 68 66 64 63 62 61 62 63 60 58
74 74 74 73 73 73 73 74 75 76 75 75 76 77 78 78 78 76 75 73 72 72 73 75 77 79 84 90 96 97 95 93 92 92 89 87 86 84 82 80 79 77 76 76 75 73 72 71 70 69 69 69 68 69 69 68 68 70 70 69 69 70 69 69 69 69 68 69 69 69 69 68 68 68 69 69 70 70 68 66 64 62 61 61 62 63 62 60
74 74 73 73 73 73 72 73 73 74 74 74 74 75 77 78 78 78 77 75 73 72 72 73 75 77 79 83 90 95 97 96 95 94 91 89 88 86 83 82 80 78 77 77 76 75 74 72 71 71 70 70 70 70 70 69 69 71 71 70 71 70 70 70 69 68 68 68 70 70 69 68 67 68 68 69 69 68 67 65 63 60 59 61 62 62 62 61
74 73 73 73 72 72 71 71 71 71 72 72 71 72 74 77 78 78 77 77 75 73 72 72 73 75 76 78 84 89 95 98 98 96 94 91 90 87 85 83 81 79 78 77 76 76 75 74 74 73 72 72 72 71 70 69 69 71 72 72 71 70 70 69 68 67 67 69 70 70 69 68 67 67 66 67 67 65 65 63 61 59 58 60 62 61 61 60
73 73 72 71 71 70 70 70 69 69 69 70 69 70 72 75 77 77 77 77 76 75 74 72 71 73 74 76 79 84 90 95 98 98 95 93 91 89 87 85 83 81 80 78 77 76 75 75 75 75 75 74 73 71 70 69 70 72 73 72 70 70 69 68 68 67 67 68 70 69 68 67 66 65 65 66 65 63 62 61 59 57 56 60 62 59 58 59
72 71 71 70 70 69 69 68 67 67 67 68 68 69 70 73 75 76 76 76 76 76 76 74 71 70 72 74 77 81 85 90 94 98 97 95 93 92 89 87 84 82 81 79 77 76 76 76 76 75 75 74 72 71 70 70 71 72 72 70 69 69 68 67 67 67 67 67 68 68 67 66 65 64 65 65 62 59 59 58 57 55 56 60 61 58 57 58
69 70 69 69 68 68 67 66 66 66 66 66 67 68 69 71 73 74 75 75 76 76 76 75 72 68 70 72 75 78 82 85 89 94 96 96 95 93 91 88 86 83 81 80 78 77 77 76 76 75 73 72 71 70 70 70 70 70 70 69 68 67 66 66 66 67 66 65 66 66 65 65 65 65 64 63 59 56 56 56 55 54 56 61 60 57 56 56
67 67 67 67 67 66 66 65 65 65 65 65 66 67 68 69 71 72 73 74 74 75 76 75 73 70 68 70 74 77 78 81 84 89 93 95 94 93 91 89 87 84 82 81 79 78 77 76 74 73 72 71 71 70 70 70 69 69 68 68 67 65 65 66 66 66 64 64 65 64 63 64 65 64 63 61 57 54 54 54 54 53 56 61 59 57 56 55
64 64 65 65 65 65 65 65 64 64 64 64 65 66 67 68 69 70 71 72 73 74 75 74 74 71 68 70 74 74 74 78 82 85 89 92 92 92 91 89 88 85 83 81 79 78 76 74 73 71 71 70 70 71 69 69 69 68 66 66 65 64 65 66 65 64 63 64 64 62 61 62 63 63 61 60 57 54 54 54 53 52 56 60 58 56 55 54
61 62 62 63 63 63 63 63 63 63 63 63 64 65 66 66 67 68 68 69 71 73 73 73 73 72 69 70 72 71 72 76 80 83 85 88 89 89 89 88 86 85 82 80 78 77 75 73 72 71 71 71 71 69 67 67 66 64 62 62 62 63 64 64 63 62 63 63 62 60 60 61 61 61 60 59 56 54 53 53 52 52 56 58 56 55 53 53
59 60 61 61 61 61 62 62 62 62 62 62 64 65 66 66 67 67 67 68 70 72 71 71 72 72 71 70 70 70 72 75 78 81 82 85 86 87 87 86 85 84 82 79 77 75 73 72 71 71 71 71 68 66 64 64 63 60 59 60 61 63 64 63 62 62 63 62 60 59 59 60 60 61 60 59 57 54 52 51 50 52 55 57 55 53 52 51
59 59 60 61 61 61 62 62 62 62 62 63 65 66 66 67 67 67 67 68 70 70 70 70 71 72 71 70 69 69 72 75 77 78 80 82 83 84 84 84 83 82 80 78 76 74 72 71 71 70 69 67 64 63 62 62 60 59 60 61 63 63 63 62 61 63 63 61 59 58 58 60 60 60 60 59 58 56 52 49 49 52 54 55 54 52 51 51
60 61 62 62 62 62 63 63 64 64 65 66 67 67 68 68 68 68 67 68 70 69 69 69 70 71 71 69 69 71 72 75 75 76 78 80 81 82 81 81 81 80 78 76 74 72 70 69 68 67 66 64 62 61 60 60 60 61 61 62 62 62 61 61 61 62 62 59 58 56 57 60 61 59 59 58 58 56 53 50 50 52 53 53 53 51 50 50
63 63 63 63 63 64 64 65 65 66 67 68 68 69 69 69 69 67 67 69 69 68 68 69 69 70 71 70 71 71 70 72 73 73 75 77 78 79 79 79 78 78 76 74 72 70 69 67 66 65 64 62 61 59 59 60 61 62 62 61 60 60 60 60 60 60 60 58 57 56 56 59 61 60 58 58 57 55 54 52 52 52 52 52 51 50 49 49
64 64 64 64 64 65 66 67 67 68 68 69 69 69 69 69 68 67 68 68 68 68 68 68 69 70 71 71 70 68 65 67 69 70 71 73 75 76 76 76 75 75 73 72 70 69 67 66 64 63 61 61 60 59 61 62 62 61 60 58 58 59 59 60 60 60 60 58 58 58 57 58 60 61 60 58 57 56 55 54 54 53 52 51 50 50 49 49
64 65 65 65 66 66 68 68 68 69 69 69 70 69 69 68 67 67 67 68 68 67 66 67 69 70 71 71 68 64 61 63 67 67 67 70 72 73 74 73 73 72 71 70 69 67 65 63 61 61 61 62 61 60 61 61 60 59 58 57 57 58 60 60 60 60 60 59 58 57 57 57 59 61 62 60 58 57 55 54 54 53 52 51 50 49 49 49
65 65 65 66 67 68 69 69 69 69 69 69 69 68 67 66 66 66 67 67 67 66 66 67 68 68 69 70 68 64 63 64 66 65 64 66 68 70 70 70 70 69 69 70 68 66 63 60 60 61 62 61 60 59 60 59 58 57 57 57 57 58 60 60 59 60 59 58 57 56 57 57 57 60 62 61 58 58 56 55 54 53 52 51 50 49 49 50
65 65 66 66 67 68 68 68 68 67 67 67 66 65 64 63 63 64 64 65 65 66 69 71 71 69 66 66 67 64 64 65 63 60 60 62 64 66 67 67 68 68 69 68 65 63 60 59 61 62 61 59 57 57 58 58 57 56 56 56 56 58 61 60 60 60 59 57 56 56 55 55 55 56 59 59 57 56 56 55 54 53 52 51 50 49 49 50
65 65 65 66 66 66 65 65 64 63 62 62 60 59 59 59 59 60 61 63 64 67 71 75 78 75 67 61 61 62 62 62 60 58 57 58 60 63 64 65 67 67 65 63 61 60 60 62 63 61 58 57 55 55 56 56 56 55 55 55 55 58 61 61 60 60 58 56 55 54 53 53 53 52 53 54 54 54 54 54 53 52 50 50 50 49 50 53
64 63 63 63 62 61 60 58 57 56 56 55 53 53 54 55 56 57 59 61 64 67 73 78 78 76 70 61 55 57 59 59 58 57 56 56 58 60 62 63 64 63 61 60 59 60 62 62 61 58 56 55 55 55 55 55 55 54 54 55 55 59 62 60 58 57 55 54 52 51 49 49 49 47 46 48 51 52 52 52 51 49 48 48 48 49 50 53
60 59 58 57 55 54 52 51 51 51 49 48 48 50 51 52 54 56 59 61 64 69 74 77 76 73 69 60 52 53 55 53 53 54 53 54 56 58 60 61 60 59 59 59 58 60 61 60 57 56 54 54 54 54 54 54 54 53 54 54 56 60 61 58 56 54 52 50 48 46 44 44 43 41 42 46 50 51 50 49 49 48 45 45 47 48 49 51
53 51 50 49 48 47 46 46 46 44 43 43 46 48 49 51 54 57 60 63 65 68 71 76 78 74 67 60 55 54 52 50 51 52 53 53 53 55 57 58 58 58 58 58 57 59 59 57 55 54 54 54 54 53 53 53 53 53 54 54 57 60 58 55 53 50 48 46 43 41 40 39 38 37 40 46 49 48 46 46 46 45 43 43 45 47 48 50
44 44 43 43 42 42 42 42 41 40 41 44 46 48 50 52 54 58 60 61 63 66 69 74 78 76 70 64 61 57 53 53 54 53 54 53 52 53 55 56 56 57 57 55 55 57 56 54 54 54 54 54 52 52 52 52 52 52 54 56 57 57 55 52 49 45 43 42 41 40 38 36 35 37 40 44 46 43 41 42 44 44 42 42 43 45 46 47
38 39 39 38 38 38 39 38 39 40 43 46 49 51 52 54 57 58 59 59 60 63 67 72 77 78 73 68 64 62 60 60 58 57 58 55 52 52 53 54 55 56 55 53 54 56 55 53 54 54 54 52 51 51 51 51 51 53 56 56 54 53 50 48 45 42 41 41 39 39 37 35 35 38 39 42 42 40 38 41 43 43 43 43 43 44 43 44
34 34 34 34 35 36 37 37 39 42 46 49 51 52 53 56 58 57 56 55 56 60 65 69 73 76 75 72 68 66 65 64 62 61 60 55 51 51 52 54 56 55 54 52 54 55 54 53 54 54 53 51 51 51 50 51 52 55 56 52 50 49 47 44 43 40 39 38 37 38 38 36 35 37 39 40 42 40 38 40 42 42 43 43 43 43 42 42
30 31 31 32 34 35 36 38 41 45 47 49 51 52 54 55 55 53 52 53 54 58 63 66 68 71 73 72 69 67 66 65 64 61 57 53 51 51 53 55 55 54 52 51 53 54 54 54 54 52 51 51 50 50 51 51 52 54 53 48 47 46 44 41 39 38 37 35 36 39 39 34 33 35 37 39 40 39 38 39 42 44 43 43 44 43 42 41
28 29 30 32 34 35 38 41 44 47 48 50 51 53 54 54 51 49 49 51 53 56 60 63 65 65 66 66 66 63 62 61 59 56 54 52 50 50 52 53 52 51 50 50 52 54 53 52 52 51 51 50 50 50 51 51 52 52 50 47 46 44 41 38 36 36 36 34 38 41 38 34 32 33 35 37 38 38 38 40 43 45 44 43 43 42 40 41
27 28 30 32 35 37 41 44 46 47 48 51 52 53 55 53 48 46 47 48 50 54 58 60 62 63 63 63 62 61 59 58 55 53 53 52 51 52 53 53 52 51 50 52 54 54 53 52 52 52 51 50 50 51 50 51 52 51 49 47 45 42 38 35 35 36 36 37 40 40 37 35 33 32 34 36 37 39 40 43 45 45 45 43 42 39 37 38
26 28 31 34 37 40 43 45 45 46 48 51 52 54 54 52 49 48 47 47 50 54 57 59 60 61 61 61 60 59 57 55 53 53 54 54 53 54 54 55 54 53 53 55 57 55 54 54 53 52 51 50 51 51 50 52 52 50 48 46 43 40 36 34 36 38 39 40 41 40 38 36 34 33 34 36 37 40 42 45 45 45 44 41 38 36 32 33
28 30 33 36 39 42 44 44 44 46 49 51 52 53 51 51 51 50 49 49 52 54 56 59 59 59 60 60 60 59 56 54 54 55 55 54 54 54 54 54 54 54 55 56 56 55 55 54 52 52 51 51 51 51 52 53 51 49 47 45 42 39 37 36 38 40 40 40 40 40 39 38 35 34 35 36 38 40 42 46 47 46 43 38 35 32 28 28
30 32 35 39 42 44 45 44 46 49 51 51 51 51 50 51 52 51 51 51 52 53 54 56 56 57 57 58 58 57 56 56 56 55 55 54 54 54 55 55 55 55 55 54 54 54 54 52 52 52 52 52 52 52 51 50 49 48 46 43 42 41 39 38 38 39 40 40 40 41 41 39 36 34 35 37 39 41 43 45 48 47 42 36 33 29 24 24
32 35 39 43 46 47 46 46 49 52 52 51 51 51 53 53 52 52 52 52 51 52 52 52 53 54 55 56 57 57 57 57 56 55 55 55 55 55 55 56 56 56 55 55 54 54 54 53 53 53 52 52 52 51 50 49 49 48 46 45 45 43 40 39 39 39 39 39 41 42 42 39 36 35 37 39 41 43 44 45 46 45 41 35 30 26 23 26
35 40 45 49 49 48 48 49 52 54 53 51 51 53 54 53 52 52 52 51 50 50 50 51 53 54 55 56 57 57 57 56 56 56 55 55 55 55 55 56 56 56 56 56 56 55 55 54 54 53 52 52 52 52 51 50 49 47 46 47 46 43 41 40 40 40 39 40 42 42 43 40 37 37 38 40 43 45 46 44 43 42 37 31 28 25 25 29
40 45 50 52 51 49 49 52 54 55 54 53 52 52 52 52 53 53 52 51 50 48 48 49 51 53 55 56 56 55 55 54 54 55 55 55 55 54 54 55 55 55 54 53 54 54 54 54 53 53 53 53 53 52 50 49 48 48 48 47 46 43 41 41 42 41 41 42 43 43 43 41 39 39 40 42 44 45 46 43 40 38 33 27 27 27 29 30
44 49 53 53 52 51 51 54 56 56 56 55 53 52 52 53 54 53 51 49 48 46 46 47 49 50 52 52 52 53 53 54 54 55 55 55 55 54 54 54 54 54 53 52 52 52 53 53 52 52 53 52 52 52 51 50 50 50 49 47 45 44 42 42 43 43 43 44 45 45 44 43 41 41 41 42 44 46 45 42 38 36 30 27 29 30 30 27
48 53 55 53 51 50 52 55 57 58 58 56 54 53 53 53 52 51 49 46 44 44 46 48 50 51 51 50 50 51 52 53 54 55 55 54 53 53 53 53 53 54 54 54 54 54 54 53 53 53 53 53 53 54 53 53 53 52 49 47 45 44 43 43 44 45 45 46 46 46 44 43 42 42 42 44 45 46 44 39 36 33 29 29 32 32 29 25
51 56 55 51 49 50 52 56 59 60 59 56 54 52 51 50 50 49 48 46 46 47 49 50 51 51 50 50 51 52 52 52 52 53 52 51 51 51 51 52 52 53 54 54 55 56 55 55 55 55 55 56 56 56 56 57 55 51 49 46 45 44 44 44 45 46 47 47 46 45 44 43 44 44 44 44 43 41 39 35 33 32 32 33 35 34 31 28
56 58 54 50 49 50 53 57 59 58 56 53 49 48 48 48 48 48 48 48 49 49 50 49 50 50 50 51 52 52 52 52 52 51 50 50 51 51 51 51 52 53 54 54 55 55 55 56 57 56 57 59 58 57 57 56 53 50 48 46 45 46 46 46 46 47 47 47 46 46 46 45 45 45 45 43 40 37 35 33 32 34 35 37 37 36 32 32
60 61 55 50 49 50 51 53 55 54 52 49 45 44 45 46 48 49 49 48 48 46 46 47 48 49 50 51 51 52 52 52 52 51 50 49 49 51 51 51 52 53 54 55 56 55 55 56 58 57 58 60 59 58 57 54 53 52 50 48 48 49 48 47 47 47 47 47 47 47 46 44 43 44 44 42 38 36 34 33 34 36 39 40 41 39 36 36
63 63 58 53 50 50 50 50 51 51 51 49 47 46 47 49 50 49 48 48 46 45 45 45 47 48 48 49 50 52 52 52 52 52 51 49 48 49 50 51 52 53 54 55 55 55 55 56 57 58 58 59 59 59 57 54 53 52 51 51 51 51 50 49 48 49 49 49 48 47 44 41 42 44 43 39 36 34 33 34 36 39 42 43 44 43 40 39
64 63 60 56 53 52 52 51 51 51 53 53 51 50 49 49 49 47 46 46 46 45 45 46 47 48 47 47 49 51 51 51 52 52 52 51 50 50 51 52 53 54 54 54 55 55 56 56 57 58 58 59 60 59 57 54 53 53 53 53 53 52 51 50 49 50 50 50 47 46 43 41 42 43 41 38 36 35 33 36 39 41 44 46 46 46 45 43
64 64 61 59 56 54 53 52 53 54 54 54 52 51 49 47 47 46 45 46 46 48 49 50 50 51 49 47 48 49 49 50 51 52 53 54 53 54 54 54 54 54 55 56 56 57 57 57 57 59 59 60 60 59 57 56 54 54 55 55 55 54 53 52 51 51 51 49 47 45 43 42 42 41 38 36 35 34 35 39 42 44 46 47 48 48 49 48
62 62 60 58 57 55 53 53 54 54 53 53 53 52 50 49 47 47 47 48 49 50 51 51 52 51 49 47 46 47 47 48 50 52 53 54 55 56 58 58 58 57 57 57 57 57 58 58 58 59 60 61 61 59 58 56 56 56 56 56 55 54 54 53 53 53 51 49 47 45 43 42 42 38 35 33 32 32 37 42 45 47 48 48 48 49 51 52
59 61 60 58 56 55 53 52 52 53 52 51 51 51 51 49 48 49 50 50 51 51 51 51 52 51 50 49 49 49 48 49 52 53 54 55 56 58 60 62 63 63 62 60 59 58 58 58 59 60 60 61 61 60 58 57 57 57 56 56 56 56 55 53 53 53 51 48 46 44 42 42 40 37 34 32 30 32 39 45 48 50 51 51 50 50 52 54
54 58 58 57 56 56 54 52 50 50 50 49 48 47 48 47 47 48 49 49 49 50 50 49 49 48 49 51 52 52 52 52 54 55 56 59 61 62 63 65 66 66 66 65 64 63 62 62 62 61 61 61 62 62 61 60 60 59 59 58 59 58 55 53 52 52 49 46 44 43 41 41 40 38 35 33 31 32 38 46 51 52 53 54 53 51 51 53
50 52 54 55 55 56 55 53 50 48 47 46 44 43 43 43 42 43 44 45 46 46 47 46 46 46 48 50 51 50 50 51 52 53 54 57 61 65 66 67 67 67 66 66 66 66 66 66 65 65 65 64 64 65 65 64 63 62 60 59 58 56 53 51 51 50 46 45 44 42 40 40 39 38 36 34 32 31 35 43 51 54 55 56 57 54 52 53
46 48 49 49 50 50 48 47 46 46 45 44 43 42 42 42 41 41 43 45 45 45 45 44 44 45 46 47 47 47 47 48 48 50 51 53 57 60 63 65 66 66 66 66 66 66 66 66 66 66 66 66 66 66 67 65 63 61 60 57 56 53 51 50 49 47 46 46 45 43 40 40 40 39 38 37 34 33 34 39 47 54 57 57 58 57 55 54
44 44 44 44 44 43 42 42 42 43 44 43 43 42 41 41 42 43 43 43 42 43 43 43 42 43 44 44 44 45 45 45 45 46 47 49 52 53 56 59 61 62 63 64 65 66 66 66 67 66 67 67 67 67 66 65 62 60 58 56 54 52 51 49 48 48 48 47 45 42 40 41 41 41 41 39 35 33 35 37 42 51 58 59 59 58 57 56
Wind_Direction
261 260 259 258 258 257 257 257 256 256 256 255 254 251 249 247 246 245 244 243 242 242 241 241 240 240 240 240 240 241 241 241 241 242 242 242 243 244 244 245 245 246 247 248 248 249 249 249 250 250 250 251 252 253 254 255 256 257 256 256 258 259 261 262 264 265 266 267 268 268 267 267 268 269 270 270 271 271 270 269 268 267 266 265 264 264 264 265
260 260 259 258 258 257 257 256 255 255 255 255 255 253 251 249 247 245 244 244 243 242 241 240 240 239 239 239 239 239 240 240 241 241 242 242 243 243 244 244 245 245 246 247 248 248 249 249 249 250 250 251 252 253 254 254 255 255 255 256 258 259 261 262 264 265 266 266 267 268 268 268 268 269 269 269 271 272 272 270 269 268 266 265 265 265 264 264
260 259 259 258 257 257 257 256 255 254 254 254 254 254 253 251 249 246 245 244 243 242 241 240 240 239 238 238 238 239 239 239 240 241 241 242 242 243 243 243 244 245 245 246 247 248 248 249 249 250 250 251 252 253 253 254 254 254 255 256 257 259 261 263 265 266 266 267 267 268 268 268 268 269 269 270 270 271 272 271 270 269 268 266 266 265 265 264
261 260 259 259 258 257 257 257 256 255 253 253 253 253 253 252 251 249 246 244 243 242 241 241 240 239 238 238 238 238 238 239 239 240 241 241 242 242 242 243 243 244 245 245 246 247 248 248 249 249 250 251 251 252 252 252 253 253 255 256 258 260 262 263 265 266 267 268 268 268 268 268 268 269 270 270 270 270 270 270 270 270 270 269 268 266 264 264
262 261 260 259 258 257 257 256 256 255 254 253 252 252 252 251 251 250 248 246 244 242 241 240 240 239 238 237 237 238 238 238 239 240 240 240 241 242 242 242 243 243 244 244 245 246 247 248 248 249 249 250 250 251 251 251 252 254 256 257 259 260 262 263 265 267 268 269 269 269 269 269 269 269 270 271 270 270 270 270 270 270 271 271 270 268 265 263
263 262 261 260 259 258 257 256 256 255 254 253 251 251 250 250 250 250 249 248 245 243 241 240 240 239 238 238 237 237 237 238 239 240 240 240 241 241 241 242 242 243 243 244 245 246 246 247 247 248 248 249 250 250 250 251 253 255 257 259 260 261 262 264 265 267 269 270 270 269 269 269 270 271 271 271 271 271 271 270 270 271 272 271 270 269 267 265
262 262 261 261 260 258 257 256 255 255 254 252 251 250 249 249 249 249 248 248 247 245 242 241 240 239 238 238 237 237 237 237 238 239 240 240 240 241 241 242 242 243 243 244 245 245 246 247 247 248 249 249 250 250 251 253 255 257 259 260 261 262 263 264 266 267 269 269 269 269 270 270 270 270 271 271 271 272 272 271 271 271 271 269 268 267 268 267
262 261 261 260 259 259 257 256 255 254 253 251 250 249 249 248 247 247 247 247 247 246 244 241 239 239 238 237 237 237 236 237 237 238 239 240 240 241 241 241 242 242 243 244 244 245 246 247 248 248 249 249 250 251 253 255 257 258 259 260 262 263 264 265 266 267 268 269 269 269 269 269 269 270 271 271 271 272 272 272 271 270 269 268 267 266 266 267
261 261 261 260 260 259 258 257 255 254 252 251 250 249 249 247 246 245 245 245 246 246 246 243 240 238 238 237 237 237 236 236 237 238 238 239 240 241 241 241 242 242 243 243 244 245 246 246 247 248 249 250 251 253 255 256 257 259 260 261 262 264 265 266 267 267 267 268 269 269 269 269 270 270 270 269 270 272 273 273 271 270 268 267 265 265 265 265
260 261 261 260 260 259 259 257 256 254 252 251 250 250 249 246 244 243 243 243 243 244 245 244 241 238 237 237 237 237 236 236 236 236 237 238 239 240 241 241 242 242 243 244 244 245 246 246 247 248 250 251 253 254 255 256 257 259 260 262 263 264 265 266 267 266 266 267 269 270 270 270 270 269 269 270 271 273 273 272 271 270 267 265 264 264 263 263
260 260 260 260 260 259 259 258 256 254 253 251 250 249 247 245 242 241 241 240 240 242 243 245 243 239 237 237 236 236 236 235 235 236 236 237 238 239 241 241 242 242 243 244 244 245 246 247 248 249 251 252 253 254 254 255 257 259 261 262 263 264 265 266 265 265 266 267 268 270 271 272 271 270 270 271 272 272 272 271 270 268 266 264 264 264 262 261
260 260 260 260 260 259 259 258 256 254 253 251 250 248 245 243 241 239 239 238 238 239 241 243 244 241 238 237 236 235 235 235 235 235 235 236 237 238 240 241 241 242 242 243 244 245 246 247 249 250 251 252 252 253 254 255 257 258 261 262 264 264 264 264 264 265 267 267 268 270 272 272 272 272 272 272 271 270 269 269 268 267 265 264 265 263 262 261
260 260 259 259 259 258 258 256 255 253 251 250 248 246 243 241 239 238 237 237 237 238 239 241 243 242 239 237 236 235 235 235 234 234 235 235 236 237 238 239 240 241 242 243 244 245 246 247 248 249 250 251 251 252 254 256 258 260 262 263 264 263 262 262 264 266 267 267 269 271 272 272 273 274 274 273 272 270 269 268 267 266 265 265 265 263 262 261
260 259 258 258 257 256 255 254 252 251 249 248 246 244 242 240 238 237 235 235 236 237 238 239 241 242 239 237 236 234 234 234 233 233 234 234 234 235 236 238 239 240 241 242 243 244 245 246 247 248 249 250 251 254 256 258 259 260 261 262 262 261 261 262 264 265 266 267 269 271 272 272 273 273 273 273 272 270 269 269 269 267 266 266 265 263 262 261
258 256 256 255 254 253 252 252 250 249 248 247 245 243 242 240 238 236 234 234 236 236 237 238 240 240 239 237 235 234 233 233 232 232 233 233 233 234 235 236 237 238 239 240 241 243 244 245 246 248 249 251 254 256 257 257 258 259 259 258 258 258 259 262 263 265 266 267 269 271 272 272 273 273 273 272 271 270 269 270 270 268 267 267 266 264 263 261
257 255 254 253 252 252 251 251 250 249 248 247 246 244 242 240 239 237 235 235 236 236 237 237 238 238 238 236 233 232 231 231 230 230 231 232 232 233 234 235 236 237 238 239 240 242 243 244 246 248 250 252 254 255 256 257 257 257 255 254 255 257 260 262 263 265 266 268 270 271 273 273 273 273 273 273 273 272 271 270 269 267 267 267 266 265 263 260
257 255 254 253 252 252 252 251 250 249 249 248 247 245 243 241 240 238 237 236 236 236 236 236 236 236 236 234 232 229 228 229 230 229 229 230 231 232 233 234 235 236 237 238 239 240 242 244 245 248 249 251 253 255 256 256 255 253 252 253 256 258 261 262 263 265 267 269 271 272 272 272 272 272 273 274 274 274 272 269 267 266 265 266 266 265 263 261
257 256 255 254 254 253 253 252 251 250 250 249 248 246 244 243 241 239 238 237 236 235 235 235 234 233 232 231 230 228 226 227 228 228 228 229 230 231 232 233 234 235 236 237 238 239 241 242 244 247 249 251 253 253 253 252 251 251 252 255 257 259 261 262 263 265 267 268 269 269 269 271 273 273 272 272 272 272 270 268 266 264 264 264 264 264 263 262
258 258 257 256 256 255 254 254 253 252 251 250 248 247 245 243 241 240 238 237 235 234 233 232 230 228 228 228 227 226 225 225 226 226 227 228 229 230 231 232 233 234 235 236 237 238 239 242 244 247 249 250 250 249 249 249 251 253 255 256 257 258 259 261 262 264 266 267 268 269 270 272 274 274 272 271 270 269 268 267 265 264 262 261 261 262 261 261
260 260 259 258 258 257 256 255 254 253 251 250 249 247 245 243 241 239 237 236 234 232 229 227 225 224 224 224 224 222 221 223 225 224 225 227 228 229 230 231 232 234 234 235 236 237 239 241 244 245 246 247 247 248 249 251 253 254 255 255 255 256 258 260 263 265 266 268 269 271 272 273 273 274 273 272 270 268 266 265 264 262 261 260 259 260 260 260
262 262 261 260 259 258 257 256 254 253 251 250 248 247 245 243 240 238 235 232 229 225 220 216 216 218 220 221 220 217 215 219 225 226 225 226 227 228 229 230 232 233 233 234 235 236 238 241 242 243 244 245 247 249 251 252 253 253 253 253 254 256 258 260 263 265 267 269 271 273 273 272 272 272 272 271 269 267 265 263 261 260 258 258 258 258 259 260
265 264 263 262 260 259 258 256 254 253 251 249 246 244 242 239 236 233 229 226 222 217 213 209 208 211 213 217 218 215 215 219 224 226 227 226 227 227 227 229 230 231 232 233 234 236 237 239 240 241 243 245 247 248 250 251 251 251 252 253 255 258 260 261 263 265 268 270 271 271 270 269 268 266 266 267 266 266 265 263 260 259 258 257 256 256 257 258
267 266 264 263 261 259 257 255 253 250 247 244 241 238 235 232 228 225 222 218 214 211 208 206 206 207 208 212 216 216 216 219 221 222 224 225 225 226 226 227 229 230 232 233 233 234 235 237 239 241 243 245 246 247 248 248 248 249 251 253 255 258 261 263 265 268 270 271 270 269 267 264 262 260 261 264 264 263 262 261 260 260 259 258 257 257 256 257
268 266 264 261 259 256 253 250 247 244 241 238 234 231 227 224 220 216 213 210 207 205 204 205 207 207 207 208 211 215 217 218 220 220 220 222 223 224 225 226 228 229 231 232 232 233 235 237 240 242 243 245 245 245 245 246 247 249 251 253 256 259 261 264 268 270 271 271 270 269 265 261 258 257 258 260 261 260 259 259 260 259 259 260 260 259 258 257
267 264 261 258 254 251 247 244 240 237 235 231 227 223 219 215 211 208 204 201 201 202 203 204 205 206 207 205 206 213 218 219 220 220 218 219 221 223 224 225 226 228 229 230 231 233 235 237 239 241 242 243 243 243 243 245 247 248 251 253 256 259 262 266 269 270 271 270 269 266 262 259 257 257 256 255 255 257 260 261 261 261 259 258 258 257 256 256
264 260 256 252 248 244 240 237 234 231 226 221 218 214 211 207 204 200 198 196 198 201 202 203 203 204 204 202 203 209 216 219 220 221 219 218 220 222 223 224 225 226 228 229 230 233 235 237 238 239 240 241 241 241 242 244 246 249 251 253 256 260 264 267 269 270 270 268 265 261 259 258 257 255 253 253 254 257 261 263 264 264 261 257 254 253 252 251
258 254 249 245 241 237 233 230 226 220 215 211 207 204 201 198 196 194 193 194 198 200 202 203 203 203 202 202 203 205 210 214 216 220 222 219 219 222 223 223 224 225 226 228 230 233 234 236 237 238 238 238 239 240 242 244 246 249 252 254 258 263 266 268 269 269 268 265 262 260 259 258 256 254 253 256 258 260 262 264 265 265 263 259 255 253 251 250
252 247 242 237 232 228 224 220 214 209 205 202 199 197 193 190 189 189 191 194 197 200 202 203 204 204 203 204 205 205 208 211 212 217 223 222 220 221 222 223 223 224 225 226 229 231 232 233 235 235 236 236 237 239 241 243 246 250 253 256 261 264 267 268 269 268 266 265 264 262 259 257 255 255 257 260 264 265 265 266 266 266 265 262 259 255 252 251
244 239 233 228 223 219 214 209 204 200 198 196 195 192 189 186 185 186 190 194 197 200 202 203 205 205 205 206 207 209 211 213 214 219 225 225 220 220 222 223 223 223 224 224 227 230 231 232 233 234 234 235 237 239 241 244 248 252 255 258 262 264 267 268 269 268 266 266 266 263 259 257 257 260 262 264 266 266 265 264 265 265 266 266 265 262 257 254
235 230 224 219 215 210 205 199 196 195 194 191 189 186 184 183 182 184 189 193 196 199 201 202 204 205 206 208 210 213 215 217 219 222 225 224 220 220 222 223 224 224 223 224 227 230 230 230 232 233 234 235 237 239 242 245 249 253 257 258 260 263 266 268 268 268 266 267 266 263 261 261 262 263 265 265 266 267 266 266 266 265 265 267 267 267 264 261
227 222 215 210 206 201 195 191 191 191 189 185 183 181 180 178 179 183 188 193 196 199 201 202 204 205 206 207 209 212 215 217 219 221 222 221 219 220 222 224 225 224 223 224 227 229 229 230 231 232 233 235 237 240 243 246 250 253 255 257 259 262 265 267 268 266 266 265 264 264 266 267 265 265 266 268 269 270 270 270 270 270 270 269 269 268 266 264
219 212 206 202 197 192 189 188 188 187 183 180 179 178 177 174 175 182 187 190 195 199 201 202 204 205 206 207 208 211 214 216 217 218 219 218 217 218 219 221 222 221 220 221 223 225 226 227 228 230 232 234 236 240 243 246 249 251 254 256 259 261 263 265 265 264 264 263 263 266 269 269 268 268 269 271 273 275 275 274 275 276 275 274 273 271 268 264
208 202 197 193 188 186 185 185 184 181 178 177 175 175 175 173 176 182 185 188 194 198 199 201 203 205 206 207 209 211 213 215 215 215 217 216 216 217 217 218 219 218 217 219 221 223 224 226 228 230 232 235 238 240 243 245 248 251 254 256 258 260 262 262 261 261 262 262 264 267 269 270 271 271 272 274 277 278 279 280 279 278 278 277 277 275 270 263
198 193 189 185 182 181 181 180 177 175 174 174 174 175 175 176 180 183 185 189 195 198 199 200 202 204 205 207 209 210 211 212 212 214 215 216 215 216 217 218 218 218 218 220 222 224 226 228 230 232 233 236 238 240 242 246 249 252 254 256 257 259 259 258 258 260 262 264 266 267 267 269 270 271 273 276 278 280 282 283 283 282 281 280 278 274 267 257
189 185 181 178 176 176 176 175 172 170 172 174 174 175 176 179 182 184 186 191 196 198 200 200 201 203 206 207 209 210 210 210 211 213 214 215 215 215 216 217 217 218 219 221 223 225 227 229 231 233 234 236 239 241 244 247 250 251 252 254 255 255 256 257 259 261 264 266 267 267 268 269 270 272 275 276 278 280 281 283 285 285 284 282 277 268 253 238
181 176 173 172 172 173 174 172 169 169 171 173 175 177 179 182 184 185 188 192 196 199 200 201 201 203 206 208 209 210 210 210 211 212 214 215 215 214 215 216 217 218 218 220 222 224 226 228 230 233 235 237 240 242 243 245 247 249 250 252 253 254 257 259 261 262 265 267 267 268 269 271 273 274 276 278 279 280 281 283 284 284 284 282 274 257 231 214
174 170 169 169 171 173 173 170 168 169 171 174 178 181 183 184 185 187 189 192 195 198 200 201 202 203 206 208 209 209 210 210 211 212 214 215 215 215 215 217 218 219 219 220 222 224 227 228 230 233 235 237 240 242 243 245 247 249 250 251 253 255 258 260 262 264 266 266 266 267 269 272 275 276 277 278 279 281 283 283 284 282 280 274 262 240 214 201
170 169 169 169 171 173 172 170 169 169 172 177 182 185 186 186 187 188 191 193 196 197 199 202 204 206 208 210 210 210 210 210 212 213 215 216 217 216 217 218 220 222 223 224 226 227 229 231 232 235 237 239 241 244 246 247 248 248 249 251 253 256 258 259 261 264 265 265 266 267 270 272 275 275 276 278 279 282 284 284 283 278 270 257 243 224 205 196
168 169 169 171 172 173 172 171 170 172 177 181 185 187 188 189 190 191 193 196 198 199 200 203 206 207 209 211 212 212 211 211 213 214 215 217 217 217 218 219 221 223 225 227 229 231 233 234 235 237 239 242 244 246 248 248 248 248 248 250 253 255 258 260 262 264 265 265 266 267 270 273 275 275 276 277 279 282 284 284 280 271 255 237 224 211 201 196
167 169 170 172 173 172 173 173 174 177 181 184 187 188 189 191 192 193 194 196 199 201 203 206 207 208 208 209 211 213 213 213 215 216 217 217 219 219 220 221 222 223 224 225 227 230 232 235 237 239 241 243 243 245 246 247 246 247 248 251 253 256 259 261 262 264 265 265 267 269 271 274 275 276 276 277 279 282 283 280 273 260 239 220 211 204 200 197
167 169 171 172 173 173 175 177 179 182 185 187 189 190 191 192 194 194 195 196 198 201 205 208 210 210 209 208 210 212 212 213 215 218 220 220 221 222 223 223 224 225 226 227 228 229 230 233 236 238 241 243 243 243 245 246 247 249 251 254 256 257 258 259 260 262 264 265 267 270 271 271 273 274 274 276 280 282 280 274 263 247 225 211 206 202 201 198
167 169 171 172 172 175 179 182 183 185 188 190 191 191 192 194 196 197 198 200 202 203 206 209 212 213 212 211 211 212 212 213 214 216 219 220 222 223 223 224 225 227 228 229 230 231 231 233 235 236 238 241 242 243 245 247 250 252 253 254 255 255 255 256 258 261 263 265 267 268 268 270 272 273 274 276 278 278 275 265 250 234 220 211 205 202 203 201
169 170 173 173 174 178 182 185 187 189 190 190 191 192 193 196 199 200 201 205 208 209 210 212 215 216 215 214 214 214 213 214 216 216 217 220 222 222 222 222 224 226 227 229 231 232 232 234 236 237 238 240 242 243 245 247 249 251 252 253 253 254 255 257 259 261 263 264 265 266 268 271 272 271 273 275 275 272 265 253 239 227 218 212 207 204 205 202
171 173 175 176 178 180 183 187 190 191 192 192 193 194 196 199 201 201 203 207 210 212 215 218 220 221 219 217 217 216 214 215 217 218 219 221 224 226 225 223 223 224 226 227 229 231 231 233 236 238 239 241 243 245 246 247 249 251 252 253 254 255 257 259 260 262 263 263 264 266 268 269 267 268 272 274 274 269 255 240 231 223 214 211 208 206 206 203
174 176 178 180 182 182 183 186 189 192 194 195 196 197 200 202 203 203 205 209 212 214 217 220 223 225 224 221 221 220 216 217 219 219 220 222 225 228 228 227 226 225 226 227 228 230 231 232 234 237 239 241 243 244 246 247 248 250 252 253 255 256 257 259 260 261 263 264 265 266 266 264 263 266 271 273 273 269 248 229 224 218 212 210 209 208 207 207
177 179 181 183 185 186 186 187 190 192 194 195 197 200 203 205 205 205 207 211 214 216 218 220 223 226 227 226 225 223 220 219 220 221 222 224 226 228 229 229 229 228 228 228 229 231 232 232 234 236 239 240 242 244 245 247 248 250 251 253 254 256 257 259 260 261 263 264 265 264 262 261 261 265 270 274 273 265 242 222 216 215 212 211 211 209 208 209
180 182 184 186 187 188 189 191 193 194 195 198 200 202 204 206 207 208 210 212 215 218 221 223 225 228 230 231 231 230 226 224 223 223 224 226 227 230 231 230 229 229 229 229 229 231 233 234 235 237 239 241 243 244 246 248 249 251 252 254 256 257 259 261 262 262 263 264 264 263 260 259 260 263 270 275 272 257 237 221 213 213 214 214 215 213 211 211
183 186 188 189 190 191 193 195 197 198 198 202 205 207 209 212 213 214 216 217 219 222 224 227 229 232 235 236 237 236 233 231 228 226 226 227 228 230 232 232 231 230 230 230 231 232 234 236 237 239 241 243 245 247 247 248 250 251 252 254 256 258 259 261 261 262 263 263 262 260 258 258 260 263 270 276 272 252 235 224 215 213 215 217 218 217 214 214
184 188 191 193 194 196 197 200 202 203 204 208 211 213 214 216 218 219 220 223 226 228 230 232 234 236 238 239 239 238 236 234 232 229 227 228 229 230 232 233 233 232 233 233 234 234 236 237 239 240 243 245 247 248 249 249 250 251 252 254 256 259 260 259 260 261 262 260 257 256 255 257 261 265 270 277 274 255 237 228 221 217 217 218 219 219 218 217
186 188 192 195 198 199 201 204 206 207 209 211 214 216 217 219 221 223 225 228 231 233 234 235 236 237 239 239 238 237 236 235 234 232 230 230 231 231 232 234 235 235 236 236 237 238 238 239 241 242 243 244 246 249 250 250 250 252 253 254 256 258 258 258 259 259 258 255 253 252 254 257 262 267 272 277 276 261 242 233 228 222 219 219 220 220 220 221
188 191 193 196 199 201 203 205 207 209 211 213 216 220 223 225 227 228 229 231 233 234 235 235 236 236 237 238 238 237 236 235 234 233 232 231 231 232 233 235 236 236 237 238 239 240 241 242 242 243 244 245 246 248 250 251 252 253 253 254 255 256 255 256 257 256 253 251 251 252 254 258 262 266 271 277 278 267 249 237 232 226 221 220 221 222 223 224
187 191 194 196 199 201 203 206 208 210 213 216 219 222 224 226 227 228 229 230 231 233 234 233 234 235 236 237 237 237 236 235 234 234 233 233 232 232 234 235 236 237 238 238 239 240 242 243 243 244 245 246 247 248 250 252 252 252 253 253 253 253 253 253 254 253 252 251 252 254 257 259 262 266 272 278 279 270 254 243 235 227 221 220 222 224 225 227
Height
10615 10615 10616 10616 10617 10617 10618 10619 10620 10621 10623 10624 10626 10628 10631 10634 10637 10640 10644 10647 10652 10657 10662 10668 10673 10678 10682 10688 10694 10696 10700 10704 10708 10710 10709 10714 10718 10720 10725 10728 10731 10734 10736 10739 10740 10743 10747 10751 10754 10757 10759 10761 10763 10766 10768 10770 10771 10772 10769 10766 10767 10770 10773 10776 10780 10783 10786 10789 10790 10791 10793 10792 10790 10788 10783 10783 10789 10794 10796 10799 10802 10804 10804 10803 10804 10806 10807 10809
10606 10606 10607 10607 10608 10608 10609 10610 10611 10613 10614 10615 10617 10619 10622 10625 10628 10631 10634 10638 10643 10647 10652 10658 10663 10668 10674 10680 10685 10688 10692 10696 10701 10700 10700 10709 10712 10714 10719 10721 10724 10727 10729 10732 10734 10737 10740 10744 10748 10750 10752 10754 10757 10760 10762 10764 10766 10764 10760 10761 10764 10766 10769 10772 10774 10777 10780 10782 10784 10784 10784 10784 10784 10783 10778 10780 10787 10788 10788 10792 10797 10798 10798 10797 10798 10801 10803 10805
10596 10596 10597 10598 10598 10599 10600 10601 10602 10604 10605 10606 10608 10610 10613 10615 10619 10622 10626 10629 10634 10638 10643 10648 10652 10658 10664 10672 10677 10680 10684 10689 10693 10689 10693 10705 10705 10706 10713 10714 10717 10720 10723 10726 10728 10731 10734 10737 10740 10743 10746 10749 10751 10754 10756 10758 10758 10756 10753 10756 10760 10762 10765 10767 10768 10771 10773 10775 10778 10777 10777 10778 10779 10777 10773 10776 10783 10782 10780 10786 10791 10792 10792 10793 10793 10795 10798 10800
10585 10586 10587 10588 10589 10590 10590 10591 10592 10594 10596 10597 10599 10601 10603 10606 10609 10613 10617 10621 10625 10629 10634 10638 10643 10648 10655 10663 10667 10671 10676 10682 10683 10680 10689 10699 10696 10699 10705 10707 10710 10713 10717 10720 10721 10724 10728 10731 10734 10737 10740 10743 10745 10748 10750 10750 10750 10748 10747 10752 10757 10758 10761 10763 10763 10764 10766 10768 10770 10770 10769 10771 10773 10772 10769 10772 10776 10775 10775 10781 10785 10785 10786 10787 10787 10789 10792 10793
10574 10575 10576 10577 10578 10579 10580 10581 10582 10584 10586 10588 10590 10592 10594 10597 10600 10604 10608 10612 10616 10620 10624 10629 10634 10639 10646 10653 10657 10661 10667 10673 10674 10674 10683 10689 10688 10692 10697 10699 10703 10707 10710 10712 10714 10718 10721 10724 10727 10731 10734 10736 10739 10741 10742 10742 10744 10742 10742 10749 10752 10754 10756 10757 10758 10758 10760 10761 10761 10762 10762 10765 10767 10766 10765 10766 10767 10768 10772 10776 10778 10780 10782 10782 10779 10779 10784 10787
10563 10564 10565 10566 10567 10569 10570 10571 10572 10574 10576 10578 10580 10582 10585 10587 10590 10594 10598 10602 10607 10611 10616 10620 10625 10630 10636 10643 10647 10652 10658 10664 10665 10667 10675 10680 10681 10685 10689 10693 10696 10700 10704 10705 10708 10712 10715 10718 10722 10724 10726 10729 10732 10733 10734 10736 10739 10737 10739 10745 10746 10747 10751 10752 10753 10754 10754 10754 10753 10753 10756 10759 10761 10760 10759 10760 10760 10762 10767 10770 10773 10777 10777 10774 10770 10770 10774 10779
10552 10553 10554 10555 10557 10558 10559 10561 10562 10564 10566 10568 10571 10573 10575 10578 10581 10585 10589 10593 10597 10602 10607 10611 10616 10621 10627 10633 10637 10642 10649 10653 10655 10658 10666 10671 10674 10677 10682 10686 10690 10694 10696 10698 10702 10705 10709 10712 10715 10717 10720 10723 10724 10725 10728 10733 10735 10733 10736 10739 10738 10742 10745 10746 10748 10749 10748 10746 10744 10746 10749 10753 10755 10754 10753 10753 10754 10756 10760 10764 10769 10773 10771 10765 10763 10764 10766 10770
10540 10542 10543 10544 10546 10547 10549 10550 10552 10554 10556 10558 10561 10563 10565 10568 10571 10575 10580 10584 10588 10593 10597 10602 10607 10612 10618 10624 10627 10633 10638 10641 10646 10650 10657 10663 10666 10670 10674 10678 10682 10686 10688 10692 10696 10699 10703 10706 10708 10710 10713 10714 10716 10720 10725 10730 10731 10728 10729 10731 10733 10736 10738 10739 10741 10742 10742 10739 10736 10739 10744 10746 10748 10750 10749 10747 10748 10752 10754 10758 10763 10765 10764 10757 10754 10759 10762 10762
10529 10530 10532 10533 10535 10537 10538 10540 10542 10544 10546 10548 10551 10554 10555 10558 10561 10566 10571 10575 10580 10583 10587 10592 10598 10604 10610 10615 10618 10623 10626 10631 10637 10642 10648 10654 10658 10662 10666 10670 10675 10678 10681 10686 10690 10693 10696 10698 10700 10702 10705 10708 10712 10719 10722 10725 10724 10719 10720 10725 10729 10730 10730 10732 10734 10735 10735 10731 10729 10733 10737 10740 10742 10744 10743 10739 10744 10750 10750 10753 10755 10757 10757 10749 10746 10753 10758 10757
10518 10519 10521 10523 10524 10526 10527 10529 10531 10533 10535 10538 10541 10543 10545 10548 10551 10557 10561 10566 10571 10574 10577 10582 10589 10596 10602 10606 10609 10612 10616 10622 10628 10632 10639 10645 10649 10654 10658 10663 10667 10671 10676 10679 10683 10687 10688 10690 10693 10696 10700 10705 10710 10714 10715 10716 10716 10713 10715 10720 10723 10723 10724 10726 10726 10726 10727 10726 10724 10726 10730 10733 10735 10736 10734 10735 10742 10746 10745 10747 10748 10750 10748 10739 10739 10748 10752 10752
10507 10508 10510 10512 10514 10515 10517 10518 10520 10523 10525 10528 10531 10533 10535 10537 10542 10547 10552 10558 10561 10564 10568 10573 10580 10588 10593 10597 10600 10602 10607 10614 10619 10624 10630 10636 10641 10646 10651 10657 10661 10665 10669 10673 10677 10679 10681 10684 10688 10693 10698 10701 10704 10706 10707 10708 10709 10709 10711 10713 10715 10717 10719 10718 10717 10716 10720 10722 10719 10720 10724 10725 10725 10727 10729 10732 10738 10741 10740 10741 10741 10742 10739 10730 10735 10743 10745 10747
10496 10498 10500 10501 10503 10504 10506 10508 10509 10512 10515 10518 10520 10522 10524 10528 10532 10538 10543 10548 10552 10556 10560 10565 10572 10578 10584 10589 10589 10592 10600 10607 10612 10616 10621 10628 10634 10639 10644 10649 10654 10658 10662 10666 10669 10671 10675 10680 10685 10690 10692 10695 10696 10697 10699 10702 10703 10705 10706 10707 10708 10711 10712 10709 10708 10710 10715 10716 10714 10717 10719 10716 10716 10720 10723 10726 10732 10735 10735 10735 10734 10735 10730 10724 10730 10736 10738 10741
10485 10487 10489 10490 10492 10494 10495 10497 10499 10501 10505 10507 10510 10512 10514 10518 10524 10529 10535 10540 10543 10547 10552 10557 10563 10569 10576 10578 10579 10587 10596 10599 10603 10607 10613 10620 10626 10632 10637 10642 10647 10651 10655 10659 10662 10666 10671 10676 10680 10683 10684 10687 10688 10689 10694 10697 10697 10700 10702 10701 10701 10703 10702 10700 10703 10706 10709 10708 10710 10713 10713 10710 10710 10713 10716 10718 10723 10728 10729 10729 10729 10729 10722 10719 10725 10729 10732 10735
10475 10477 10478 10480 10481 10483 10484 10486 10488 10491 10495 10497 10499 10501 10505 10510 10515 10520 10527 10531 10535 10539 10544 10550 10555 10561 10566 10568 10573 10582 10588 10590 10594 10599 10604 10611 10617 10623 10628 10634 10639 10644 10648 10652 10657 10661 10665 10669 10672 10674 10676 10678 10681 10686 10691 10692 10692 10696 10697 10695 10694 10693 10692 10695 10699 10701 10702 10703 10706 10708 10707 10705 10705 10706 10709 10711 10715 10720 10722 10723 10724 10722 10715 10713 10718 10722 10725 10728
10465 10466 10467 10469 10470 10472 10474 10476 10478 10481 10485 10487 10489 10491 10496 10501 10506 10512 10519 10523 10526 10531 10537 10542 10547 10552 10557 10560 10568 10576 10579 10581 10584 10590 10596 10602 10609 10615 10620 10626 10631 10636 10641 10646 10650 10654 10658 10662 10664 10667 10670 10674 10679 10684 10685 10685 10687 10690 10690 10688 10685 10683 10685 10691 10695 10695 10695 10698 10702 10703 10701 10699 10699 10700 10702 10705 10708 10713 10717 10718 10717 10714 10709 10707 10711 10715 10719 10720
10455 10456 10457 10459 10460 10462 10464 10466 10468 10471 10474 10476 10478 10482 10486 10491 10497 10503 10510 10515 10518 10523 10530 10535 10539 10543 10546 10553 10562 10567 10569 10569 10574 10584 10590 10595 10601 10607 10613 10618 10624 10629 10635 10640 10643 10647 10652 10655 10658 10662 10666 10671 10676 10678 10678 10678 10681 10682 10681 10678 10677 10678 10682 10687 10689 10688 10689 10694 10697 10699 10696 10692 10692 10694 10695 10698 10700 10705 10710 10712 10710 10707 10703 10702 10704 10708 10711 10713
10444 10445 10447 10448 10450 10452 10454 10455 10458 10461 10463 10465 10468 10472 10476 10482 10487 10494 10502 10506 10509 10516 10522 10525 10530 10534 10538 10546 10553 10556 10558 10560 10568 10578 10583 10587 10594 10600 10606 10612 10618 10623 10629 10634 10637 10642 10646 10649 10653 10658 10661 10666 10670 10672 10672 10671 10671 10671 10671 10672 10673 10676 10679 10682 10683 10682 10685 10690 10692 10694 10691 10685 10685 10689 10690 10692 10694 10696 10701 10704 10703 10700 10698 10697 10698 10702 10704 10706
10433 10435 10436 10438 10440 10442 10443 10445 10447 10450 10452 10454 10457 10461 10466 10471 10478 10486 10492 10496 10501 10508 10513 10517 10521 10525 10530 10537 10541 10545 10551 10555 10563 10571 10576 10581 10587 10594 10600 10605 10611 10617 10622 10628 10632 10636 10640 10644 10648 10653 10657 10661 10664 10665 10663 10660 10661 10662 10665 10670 10671 10673 10675 10676 10677 10678 10680 10684 10686 10687 10686 10680 10679 10682 10685 10687 10688 10689 10691 10694 10694 10693 10693 10692 10693 10696 10697 10698
10423 10424 10426 10428 10430 10431 10432 10434 10436 10439 10441 10443 10447 10451 10456 10462 10470 10477 10482 10487 10493 10499 10503 10507 10512 10516 10522 10527 10532 10540 10546 10550 10557 10565 10570 10575 10581 10588 10594 10599 10605 10611 10617 10622 10625 10630 10635 10639 10644 10649 10653 10653 10654 10655 10653 10652 10655 10658 10663 10668 10668 10668 10668 10669 10671 10673 10675 10678 10680 10680 10680 10678 10674 10673 10676 10679 10681 10682 10683 10684 10685 10686 10688 10688 10688 10690 10691 10692
10412 10414 10416 10418 10419 10419 10420 10422 10424 10427 10429 10432 10435 10440 10446 10453 10460 10466 10471 10477 10482 10488 10495 10499 10503 10508 10514 10520 10528 10536 10542 10546 10551 10557 10563 10569 10575 10582 10588 10594 10600 10606 10611 10615 10618 10624 10630 10636 10641 10643 10642 10642 10645 10648 10647 10648 10652 10655 10660 10662 10663 10662 10661 10663 10666 10666 10669 10672 10675 10675 10675 10674 10670 10666 10666 10670 10673 10674 10676 10677 10677 10679 10681 10682 10684 10685 10686 10686
10401 10403 10405 10406 10407 10407 10408 10409 10412 10415 10417 10420 10424 10430 10436 10443 10449 10455 10460 10465 10471 10479 10486 10490 10495 10502 10508 10515 10523 10531 10537 10540 10545 10552 10559 10564 10570 10577 10584 10590 10595 10600 10603 10606 10613 10620 10627 10632 10633 10632 10632 10635 10640 10643 10643 10645 10649 10651 10653 10655 10657 10656 10654 10658 10660 10660 10664 10668 10670 10670 10668 10667 10666 10662 10658 10660 10664 10664 10666 10669 10669 10672 10674 10676 10679 10681 10681 10680
10390 10391 10393 10393 10394 10394 10395 10397 10400 10402 10405 10409 10414 10420 10426 10431 10437 10442 10448 10453 10461 10469 10475 10482 10490 10495 10502 10510 10518 10526 10532 10536 10542 10549 10554 10560 10566 10572 10578 10584 10588 10591 10595 10602 10611 10618 10623 10624 10620 10621 10626 10631 10637 10639 10639 10641 10643 10645 10647 10649 10651 10649 10646 10651 10654 10655 10660 10664 10664 10664 10663 10662 10661 10658 10652 10652 10655 10655 10656 10659 10661 10665 10668 10671 10674 10676 10677 10675
10378 10379 10380 10380 10380 10381 10383 10385 10388 10391 10394 10397 10404 10410 10415 10420 10426 10431 10438 10445 10453 10462 10469 10476 10481 10487 10497 10506 10514 10521 10526 10531 10537 10543 10548 10555 10560 10565 10572 10577 10580 10585 10592 10600 10608 10613 10613 10610 10611 10617 10624 10628 10632 10634 10634 10635 10638 10640 10642 10644 10645 10641 10638 10644 10648 10651 10655 10657 10656 10657 10657 10656 10654 10652 10649 10646 10646 10647 10648 10650 10653 10658 10662 10665 10668 10671 10672 10669
10365 10366 10366 10367 10368 10369 10371 10374 10377 10380 10383 10389 10396 10401 10406 10412 10418 10424 10431 10440 10449 10457 10463 10469 10476 10485 10493 10502 10510 10515 10519 10524 10530 10536 10544 10549 10554 10560 10567 10571 10575 10583 10590 10596 10601 10603 10601 10603 10609 10615 10620 10623 10626 10628 10628 10629 10632 10635 10636 10638 10639 10634 10632 10639 10643 10645 10648 10648 10649 10650 10650 10648 10646 10647 10647 10642 10638 10637 10640 10643 10647 10653 10658 10660 10662 10663 10663 10661
10353 10353 10354 10355 10356 10358 10361 10364 10367 10371 10378 10385 10390 10395 10400 10406 10413 10419 10427 10436 10444 10451 10458 10466 10475 10482 10490 10500 10508 10510 10514 10520 10526 10533 10539 10544 10550 10556 10561 10566 10573 10580 10585 10589 10594 10593 10594 10601 10607 10611 10615 10617 10620 10622 10623 10624 10627 10629 10631 10632 10631 10626 10628 10636 10638 10639 10641 10642 10643 10642 10641 10640 10641 10642 10641 10635 10630 10631 10635 10639 10642 10648 10654 10656 10655 10655 10654 10652
10342 10342 10343 10345 10347 10350 10353 10356 10361 10367 10374 10380 10384 10390 10396 10402 10409 10416 10424 10433 10440 10448 10456 10463 10470 10478 10489 10498 10502 10505 10512 10518 10523 10530 10534 10540 10546 10551 10556 10563 10568 10573 10577 10582 10586 10587 10590 10598 10602 10606 10609 10611 10614 10616 10617 10619 10622 10623 10624 10625 10622 10620 10625 10631 10633 10634 10635 10635 10635 10634 10634 10634 10635 10635 10631 10626 10625 10629 10633 10635 10636 10640 10646 10648 10647 10646 10646 10644
10332 10333 10334 10337 10340 10343 10346 10351 10357 10363 10368 10374 10379 10385 10392 10400 10408 10415 10423 10431 10438 10445 10452 10459 10466 10475 10485 10491 10495 10502 10508 10512 10519 10527 10530 10536 10542 10546 10551 10557 10562 10567 10571 10578 10581 10582 10587 10593 10597 10600 10602 10605 10609 10611 10612 10614 10616 10616 10616 10617 10616 10617 10622 10625 10627 10629 10628 10627 10628 10628 10629 10629 10629 10627 10624 10621 10622 10627 10631 10631 10630 10632 10635 10638 10638 10639 10639 10638
10324 10325 10327 10331 10334 10337 10342 10347 10352 10358 10363 10368 10373 10379 10387 10396 10405 10413 10421 10428 10436 10443 10449 10455 10463 10471 10480 10487 10492 10498 10501 10506 10516 10522 10522 10528 10537 10541 10546 10551 10556 10560 10566 10573 10576 10576 10582 10588 10590 10593 10596 10601 10604 10605 10607 10608 10609 10608 10608 10611 10613 10613 10616 10619 10621 10622 10621 10620 10621 10622 10623 10623 10622 10621 10620 10619 10619 10623 10627 10624 10623 10624 10626 10628 10630 10631 10633 10632
10317 10319 10322 10325 10329 10333 10338 10343 10348 10353 10358 10364 10370 10378 10386 10395 10402 10411 10419 10427 10434 10440 10445 10452 10459 10468 10476 10483 10488 10492 10497 10504 10511 10515 10517 10525 10533 10538 10541 10545 10548 10554 10562 10569 10569 10570 10577 10582 10583 10587 10592 10595 10598 10600 10601 10603 10603 10601 10602 10608 10609 10609 10611 10613 10613 10615 10614 10615 10615 10614 10614 10617 10617 10617 10617 10615 10614 10617 10619 10618 10617 10618 10619 10620 10622 10623 10625 10625
10312 10315 10318 10321 10325 10330 10335 10340 10345 10350 10356 10362 10370 10379 10388 10395 10403 10411 10418 10424 10430 10436 10442 10449 10456 10464 10471 10478 10483 10488 10494 10500 10506 10512 10515 10522 10529 10533 10536 10538 10544 10552 10559 10564 10565 10566 10572 10576 10579 10583 10587 10590 10593 10594 10596 10597 10597 10595 10598 10603 10604 10605 10607 10607 10608 10608 10607 10609 10607 10604 10607 10612 10614 10613 10612 10610 10609 10610 10612 10613 10612 10612 10613 10614 10615 10615 10616 10615
10308 10311 10315 10318 10323 10328 10332 10337 10342 10348 10355 10363 10371 10379 10387 10396 10403 10410 10415 10421 10428 10434 10440 10447 10454 10461 10468 10474 10479 10484 10490 10497 10504 10509 10512 10518 10525 10529 10532 10535 10542 10549 10556 10560 10561 10561 10566 10571 10575 10578 10582 10585 10587 10588 10591 10592 10591 10591 10593 10597 10599 10601 10602 10602 10603 10601 10601 10602 10599 10597 10602 10607 10609 10609 10607 10605 10604 10605 10606 10606 10605 10605 10607 10608 10608 10609 10609 10607
10305 10309 10313 10317 10321 10326 10330 10335 10341 10348 10356 10364 10372 10380 10388 10395 10403 10408 10414 10421 10427 10432 10438 10445 10451 10457 10464 10469 10475 10481 10488 10495 10501 10504 10506 10513 10519 10522 10526 10530 10536 10543 10549 10552 10552 10555 10560 10565 10568 10572 10576 10580 10581 10583 10586 10585 10584 10586 10589 10592 10594 10596 10597 10598 10597 10595 10596 10596 10593 10594 10598 10601 10603 10605 10603 10600 10599 10599 10599 10599 10599 10599 10600 10601 10601 10602 10603 10601
10303 10307 10311 10315 10319 10324 10329 10336 10343 10351 10359 10366 10374 10382 10388 10395 10400 10405 10412 10418 10422 10426 10433 10440 10446 10453 10460 10466 10472 10478 10484 10491 10495 10497 10500 10506 10511 10515 10520 10524 10529 10536 10541 10543 10545 10549 10554 10558 10563 10568 10572 10574 10576 10578 10579 10577 10578 10582 10584 10586 10588 10591 10593 10593 10592 10590 10590 10590 10590 10592 10594 10596 10599 10600 10599 10597 10595 10594 10593 10591 10591 10592 10593 10594 10595 10595 10596 10595
10302 10306 10310 10314 10318 10324 10331 10339 10347 10354 10362 10369 10376 10383 10389 10392 10395 10401 10408 10413 10416 10422 10428 10435 10442 10449 10455 10461 10466 10472 10479 10484 10487 10490 10494 10501 10507 10511 10516 10520 10525 10530 10534 10538 10542 10546 10550 10555 10561 10564 10566 10569 10569 10571 10571 10571 10574 10577 10578 10581 10583 10585 10587 10587 10586 10585 10585 10586 10587 10588 10589 10592 10595 10596 10595 10593 10591 10589 10588 10585 10583 10584 10586 10588 10589 10589 10589 10588
10301 10305 10310 10314 10320 10327 10334 10341 10348 10356 10363 10370 10376 10382 10385 10388 10393 10399 10404 10408 10413 10419 10426 10433 10440 10446 10451 10456 10462 10468 10474 10478 10481 10486 10491 10496 10501 10506 10510 10515 10519 10524 10529 10534 10539 10543 10547 10552 10556 10557 10560 10562 10563 10565 10567 10568 10570 10571 10573 10576 10577 10578 10580 10581 10581 10581 10581 10582 10582 10582 10584 10588 10591 10592 10591 10589 10586 10585 10584 10582 10578 10578 10580 10581 10582 10583 10583 10582
10301 10306 10310 10316 10322 10329 10336 10342 10349 10356 10363 10370 10374 10377 10380 10384 10390 10397 10401 10406 10411 10417 10425 10433 10439 10444 10448 10453 10458 10464 10469 10472 10477 10482 10486 10490 10495 10500 10505 10509 10514 10519 10525 10529 10533 10537 10541 10546 10548 10550 10553 10556 10557 10560 10562 10563 10563 10565 10568 10569 10569 10571 10574 10576 10577 10577 10578 10578 10578 10577 10579 10582 10586 10587 10586 10584 10581 10579 10578 10579 10576 10574 10574 10575 10575 10577 10577 10577
10301 10306 10311 10317 10324 10330 10336 10343 10349 10356 10362 10368 10370 10373 10377 10383 10390 10396 10401 10406 10411 10417 10424 10429 10434 10439 10444 10447 10452 10458 10463 10468 10474 10478 10482 10485 10490 10496 10501 10505 10509 10514 10519 10523 10528 10532 10535 10539 10542 10544 10548 10550 10551 10553 10556 10557 10558 10561 10562 10562 10563 10567 10570 10571 10572 10573 10574 10574 10573 10573 10574 10577 10580 10581 10580 10578 10576 10574 10573 10573 10573 10571 10570 10569 10569 10570 10572 10573
10302 10307 10312 10318 10324 10331 10337 10343 10349 10355 10360 10364 10367 10372 10378 10384 10389 10394 10399 10404 10410 10416 10421 10426 10431 10436 10440 10443 10449 10455 10461 10467 10471 10475 10478 10482 10487 10493 10499 10502 10507 10512 10518 10522 10526 10529 10531 10534 10538 10540 10542 10543 10545 10547 10550 10553 10554 10555 10556 10557 10559 10564 10566 10567 10567 10568 10569 10568 10568 10568 10569 10572 10574 10575 10575 10572 10570 10569 10567 10567 10567 10566 10565 10564 10564 10565 10568 10570
10303 10309 10314 10320 10325 10331 10337 10343 10349 10353 10357 10361 10366 10372 10377 10382 10387 10392 10398 10404 10409 10415 10420 10424 10428 10433 10438 10444 10450 10454 10459 10464 10467 10470 10474 10478 10483 10490 10495 10500 10505 10511 10516 10520 10523 10526 10528 10531 10534 10535 10536 10539 10540 10541 10543 10546 10547 10548 10551 10553 10556 10559 10561 10562 10562 10562 10563 10562 10563 10564 10565 10567 10568 10569 10568 10567 10566 10564 10562 10562 10561 10560 10560 10560 10561 10563 10566 10569
10304 10310 10316 10322 10327 10332 10338 10344 10348 10351 10355 10360 10365 10370 10376 10382 10387 10393 10398 10404 10409 10414 10417 10419 10423 10428 10434 10441 10446 10450 10455 10461 10464 10466 10471 10477 10482 10488 10492 10498 10502 10505 10509 10514 10517 10520 10522 10525 10528 10529 10531 10533 10534 10534 10536 10537 10538 10542 10546 10550 10553 10555 10557 10557 10557 10557 10557 10557 10558 10559 10560 10562 10562 10562 10562 10561 10561 10559 10557 10556 10555 10555 10556 10557 10559 10562 10564 10567
10305 10312 10318 10323 10328 10334 10339 10343 10345 10349 10353 10358 10364 10371 10378 10383 10387 10393 10397 10401 10405 10409 10412 10415 10420 10425 10432 10437 10440 10444 10451 10457 10461 10465 10471 10476 10481 10485 10489 10494 10498 10501 10504 10507 10510 10512 10516 10519 10521 10524 10525 10524 10525 10527 10528 10529 10533 10539 10544 10547 10550 10551 10552 10552 10552 10551 10552 10552 10553 10554 10555 10556 10556 10556 10556 10556 10556 10555 10552 10551 10550 10550 10551 10553 10556 10559 10561 10563
10307 10313 10319 10323 10328 10333 10337 10341 10345 10349 10355 10360 10367 10374 10379 10384 10388 10393 10396 10399 10401 10405 10409 10414 10418 10423 10428 10432 10436 10441 10447 10452 10457 10461 10466 10471 10475 10479 10484 10489 10493 10496 10499 10502 10504 10507 10512 10513 10514 10517 10517 10515 10518 10522 10523 10526 10531 10536 10539 10542 10544 10544 10545 10547 10547 10547 10547 10547 10548 10548 10549 10551 10552 10550 10550 10551 10552 10550 10548 10546 10545 10546 10548 10550 10552 10555 10557 10557
10307 10313 10319 10324 10328 10332 10337 10343 10348 10353 10358 10364 10371 10376 10381 10385 10387 10391 10394 10397 10401 10405 10410 10413 10416 10420 10424 10429 10433 10439 10445 10450 10453 10457 10462 10466 10469 10473 10477 10482 10486 10489 10493 10495 10498 10502 10506 10507 10507 10510 10510 10509 10512 10515 10518 10524 10528 10530 10532 10535 10537 10537 10539 10541 10542 10542 10541 10542 10543 10543 10544 10547 10546 10544 10544 10546 10546 10545 10543 10541 10541 10542 10544 10546 10548 10550 10551 10552
10306 10312 10317 10323 10328 10332 10338 10344 10350 10355 10360 10365 10370 10374 10377 10379 10382 10388 10393 10396 10400 10405 10409 10411 10414 10417 10421 10426 10430 10435 10442 10447 10450 10455 10459 10463 10465 10467 10471 10475 10479 10482 10485 10488 10492 10495 10499 10501 10501 10503 10504 10504 10506 10509 10514 10519 10522 10524 10526 10528 10529 10531 10533 10535 10536 10535 10535 10536 10537 10538 10541 10542 10540 10537 10539 10541 10540 10539 10538 10537 10537 10539 10541 10542 10544 10546 10547 10547
10305 10310 10315 10321 10325 10330 10336 10342 10348 10354 10358 10362 10367 10370 10373 10376 10381 10388 10393 10396 10400 10403 10406 10408 10410 10413 10417 10422 10426 10431 10438 10443 10446 10451 10455 10458 10460 10461 10464 10468 10472 10477 10480 10482 10485 10488 10491 10494 10495 10496 10497 10499 10500 10504 10508 10513 10517 10519 10520 10522 10523 10524 10526 10528 10529 10528 10528 10530 10532 10533 10535 10536 10533 10533 10535 10535 10534 10534 10534 10533 10534 10536 10538 10539 10540 10541 10542 10542
10306 10310 10315 10319 10325 10330 10335 10341 10346 10350 10354 10360 10365 10369 10372 10376 10382 10387 10391 10394 10396 10398 10400 10403 10405 10408 10413 10418 10421 10427 10434 10439 10443 10447 10449 10452 10454 10455 10457 10462 10466 10470 10474 10477 10479 10481 10483 10487 10489 10489 10490 10492 10494 10498 10503 10507 10510 10512 10513 10514 10515 10517 10519 10520 10521 10521 10522 10524 10526 10528 10529 10529 10529 10529 10530 10530 10529 10528 10528 10529 10530 10532 10534 10535 10535 10536 10537 10537
10307 10312 10316 10320 10325 10331 10335 10340 10344 10349 10354 10360 10364 10368 10372 10376 10381 10385 10388 10390 10392 10393 10397 10400 10403 10406 10410 10415 10418 10423 10430 10435 10439 10442 10444 10446 10448 10449 10451 10454 10458 10461 10465 10469 10472 10474 10477 10480 10482 10482 10483 10485 10488 10493 10498 10501 10504 10505 10506 10507 10509 10510 10512 10513 10514 10515 10517 10518 10520 10522 10523 10523 10524 10525 10525 10525 10524 10523 10523 10525 10526 10528 10529 10530 10530 10531 10533 10534
10307 10312 10317 10321 10326 10331 10335 10339 10343 10349 10354 10358 10363 10367 10370 10374 10379 10382 10385 10387 10389 10392 10395 10398 10401 10404 10408 10411 10414 10418 10424 10429 10432 10436 10439 10440 10442 10443 10443 10445 10449 10453 10457 10461 10465 10468 10470 10472 10475 10477 10478 10480 10483 10487 10492 10495 10496 10497 10499 10500 10501 10503 10506 10507 10507 10509 10511 10513 10514 10516 10517 10517 10518 10519 10520 10520 10519 10519 10519 10520 10522 10524 10525 10525 10526 10527 10529 10530
10308 10313 10317 10322 10327 10331 10335 10340 10344 10349 10353 10358 10362 10365 10369 10372 10375 10378 10382 10385 10387 10389 10391 10394 10398 10402 10404 10406 10408 10412 10416 10420 10424 10428 10432 10434 10434 10435 10435 10437 10441 10446 10451 10455 10459 10462 10464 10466 10469 10472 10474 10476 10477 10480 10484 10487 10489 10491 10493 10494 10495 10497 10499 10501 10501 10502 10505 10507 10508 10510 10511 10511 10512 10514 10514 10515 10515 10515 10516 10517 10518 10519 10521 10521 10521 10522 10525 10526
10309 10313 10317 10322 10326 10330 10334 10339 10344 10349 10353 10357 10361 10364 10367 10370 10373 10376 10380 10382 10383 10385 10388 10392 10396 10398 10399 10399 10401 10405 10409 10412 10416 10420 10424 10426 10426 10427 10428 10430 10435 10441 10445 10449 10452 10455 10458 10460 10463 10466 10468 10470 10471 10471 10474 10479 10482 10484 10486 10488 10489 10491 10493 10494 10495 10496 10499 10500 10502 10503 10505 10506 10507 10508 10509 10510 10510 10511 10512 10513 10514 10516 10516 10517 10517 10518 10520 10521
10308 10312 10317 10321 10325 10330 10335 10340 10344 10348 10352 10356 10359 10362 10365 10368 10371 10374 10376 10377 10380 10382 10385 10388 10391 10392 10392 10393 10396 10399 10402 10406 10409 10412 10415 10417 10418 10420 10423 10425 10429 10434 10438 10442 10445 10447 10450 10453 10456 10459 10461 10463 10464 10464 10466 10471 10475 10477 10480 10482 10484 10485 10486 10487 10488 10490 10492 10493 10495 10497 10500 10501 10501 10502 10504 10505 10506 10507 10508 10509 10510 10512 10512 10513 10513 10514 10515 10516
10307 10312 10316 10321 10325 10330 10335 10339 10343 10347 10351 10354 10357 10360 10363 10365 10367 10369 10370 10373 10376 10378 10379 10382 10385 10387 10388 10390 10392 10394 10396 10400 10404 10407 10409 10411 10413 10416 10419 10420 10423 10427 10431 10434 10437 10439 10442 10445 10448 10452 10454 10456 10457 10458 10460 10464 10467 10471 10474 10476 10478 10479 10480 10480 10481 10483 10484 10487 10489 10492 10494 10495 10496 10497 10498 10500 10501 10502 10503 10503 10505 10507 10508 10509 10509 10510 10511 10512